{"data":{"norad_id":59876,"epoch":"2026-09-21T15:41:06.052128Z","epoch_age_seconds":74772,"freshness":"FRESH","line1":"1 59876U 24098U   26264.65354227  .00004550  00000+0  17486-3 0  9994","line2":"2 59876  43.0011 251.5215 0001080 256.7499 103.3232 15.27557958131810","mean_motion":15.27557958,"eccentricity":0.000108,"inclination_deg":43.0011,"raan_deg":251.5215,"arg_perigee_deg":256.7499,"mean_anomaly_deg":103.3232,"bstar":0.00017486,"rev_number":13181,"period_min":94.268108942024,"perigee_km":482.37408328423,"apogee_km":483.85611373751,"semimajor_km":6861.2520985109,"source":"CELESTRAK","updated_at":"2026-09-22T09:00:49.104121Z"}}